Regional Weather Roundup
Issued by NWS Raleigh/Durham, NC

Home | Current Version | Previous Version | Text Only | Print | Product List | Glossary On
Versions: 1 2 3 4 5 6 7 8 9 10 11 12 13 14 15 16 17 18 19 20 21 22 23 24 25 26 27 28 29 30 31 32 33 34 35 36 37 38 39 40 41 42 43 44 45 46 47 48 49 50
000
ASUS42 KRAH 052210
RWRRAH
NORTH CAROLINA WEATHER ROUNDUP
NATIONAL WEATHER SERVICE RALEIGH NC
500 PM EST THU MAR 05 2015

NOTE: "FAIR" INDICATES FEW OR NO CLOUDS BELOW 12,000 FEET WITH NO
SIGNIFICANT WEATHER AND/OR OBSTRUCTIONS TO VISIBILITY.

NCZ001-053-055-056-065-067-052300-
WESTERN NORTH CAROLINA

CITY           SKY/WX    TMP DP  RH WIND       PRES   REMARKS
ASHEVILLE      CLOUDY    33  26  75 N29G40    30.09R WCI  19
JEFFERSON      CLOUDY    28  25  87 N14G23    30.07R WCI  17
MORGANTON      RAIN      42  41  97 NE5       30.13R
HICKORY        LGT RAIN  42  39  89 N6        30.09R
RUTHERFORDTON  RAIN      47  46  95 NE9G16    30.05R
MOUNT AIRY     LGT RAIN  37  32  84 N10G17    30.16R WCI  29
BOONE          LGT SNOW  30  29  99 W17G25    30.06R WCI  18
$$

NCZ021-022-025-041-071-084-088-052300-
CENTRAL NORTH CAROLINA

CITY           SKY/WX    TMP DP  RH WIND       PRES   REMARKS
CHARLOTTE      CLOUDY    45  41  86 NE10G21   30.06R
GREENSBORO     LGT RAIN  36  33  89 NE15      30.09R WCI  27
WINSTON-SALEM  CLOUDY    37  33  85 NE9G20    30.11R WCI  30
RALEIGH-DURHAM LGT RAIN  37  33  85 NE9G22    30.08R FOG     WCI  30
FORT BRAGG     LGT RAIN  39  37  93 NE12G18   30.03F WCI  32
FAYETTEVILLE   LGT RAIN  40  38  93 NE14G22   30.01F FOG     WCI  32
BURLINGTON     LGT RAIN  37  33  85 N9        30.12R WCI  30
LAURINBURG     LGT RAIN  40  39  97 NE14G23   30.02S FOG     WCI  32
$$

NCZ011-015-027-028-043-044-047-080-103-052300-
NORTHEASTERN NORTH CAROLINA

CITY           SKY/WX    TMP DP  RH WIND       PRES   REMARKS
ROCKY MT-WILSO LGT RAIN  37  35  92 NE12      30.08F FOG     WCI  29
GREENVILLE     LGT RAIN  36  36 100 NE12G17   30.14R WCI  27
WASHINGTON     RAIN      37  35  92 N13G22    30.11R WCI  28
ELIZABETH CITY LGT RAIN  36  34  93 N14G24    30.13R WCI  27
MANTEO         CLOUDY    35  34  95 N21G36    30.08R WCI  24
CAPE HATTERAS  LGT RAIN  38  38 100 N17G36    30.01R FOG     WCI  28
$$

NCZ078-087-090-091-093-098-101-052300-
SOUTHEASTERN NORTH CAROLINA

CITY           SKY/WX    TMP DP  RH WIND       PRES   REMARKS
LUMBERTON      HVY RAIN  42  32  67 E14G21    29.99F
GOLDSBORO      LGT RAIN  37  37 100 E15G28    30.01F FOG     WCI  28
KINSTON        RAIN      37  36  93 N13G25    30.14R WCI  29
KENANSVILLE    LGT RAIN  38  37  97 N18G25    30.11R WCI  28
NEW BERN       LGT RAIN  40  35  83 N21G31    30.10R WCI  30
CHERRY POINT   CLOUDY    44  39  82 N18G26    30.05R
BEAUFORT       CLOUDY    42  41  96 N15G30    30.02R
JACKSONVILLE   LGT RAIN  45  40  82 N22G32    30.05R
WILMINGTON     CLOUDY    50  43  77 N22G39    30.01R
$$




USA.gov is the U.S. government's official web portal to all federal, state and local government web resources and services.